WAT4147 KSBP-KDFW

Flight info

Callsign WAT4147
Flight time N/A
Altitude 35000
Route DERBB MARIC PMD BLH J169 TFD J50 SSO J4 INK GEEKY SHMPP3
Aircraft CRJX/M-SDFGIRWY/S

Departure

Time 2026-04-29 17:59
Airport San Luis County Regional Airport (KSBP)

Arrival

Time N/A
Airport Dallas Fort Worth International Airport (KDFW)
Time Latitude Longitude Altitude Speed Heading
2026-04-29 17:10 35.23836 -120.63744 199 ft 0 kts 307°
2026-04-29 17:48 35.23831 -120.63736 208 ft 4 kts 314°
2026-04-29 17:48 35.23814 -120.63715 203 ft 4 kts 328°
2026-04-29 17:48 35.23791 -120.63711 210 ft 4 kts
2026-04-29 17:49 35.23766 -120.63718 206 ft 4 kts 28°
2026-04-29 17:49 35.23744 -120.63737 206 ft 4 kts 36°
2026-04-29 17:49 35.23721 -120.63754 208 ft 4 kts 29°
2026-04-29 17:49 35.23697 -120.63769 209 ft 4 kts 25°
2026-04-29 17:50 35.23682 -120.63777 211 ft 1 kts 21°
2026-04-29 17:50 35.23680 -120.63778 209 ft 0 kts 21°
2026-04-29 17:51 35.23681 -120.63778 211 ft 1 kts 16°
2026-04-29 17:52 35.23707 -120.63768 204 ft 7 kts
2026-04-29 17:52 35.23734 -120.63791 201 ft 8 kts 289°
2026-04-29 17:52 35.23734 -120.63873 200 ft 4 kts 225°
2026-04-29 17:52 35.23722 -120.63874 208 ft 2 kts 161°
2026-04-29 17:53 35.23684 -120.63824 202 ft 11 kts 127°
2026-04-29 17:53 35.23628 -120.63729 211 ft 18 kts 128°
2026-04-29 17:53 35.23562 -120.63605 213 ft 16 kts 123°
2026-04-29 17:53 35.23505 -120.63506 216 ft 13 kts 126°
2026-04-29 17:54 35.23459 -120.63428 220 ft 10 kts 126°
2026-04-29 17:54 35.23424 -120.63369 222 ft 9 kts 126°
2026-04-29 17:54 35.23384 -120.63299 220 ft 10 kts 126°
2026-04-29 17:54 35.23346 -120.63243 222 ft 6 kts 152°
2026-04-29 17:55 35.23304 -120.63252 222 ft 9 kts 210°
2026-04-29 17:55 35.23270 -120.63299 221 ft 5 kts 283°
2026-04-29 17:55 35.23276 -120.63309 221 ft 0 kts 305°
2026-04-29 17:55 35.23341 -120.63420 216 ft 49 kts 305°
2026-04-29 17:56 35.23676 -120.64011 203 ft 116 kts 305°
2026-04-29 17:56 35.23780 -120.63850 207 ft 0 kts 33°
2026-04-29 17:56 35.23823 -120.63855 201 ft 5 kts 313°
2026-04-29 17:56 35.23823 -120.63892 204 ft 10 kts 240°
2026-04-29 17:57 35.23741 -120.63896 206 ft 24 kts 153°
2026-04-29 17:57 35.23626 -120.63721 212 ft 32 kts 124°
2026-04-29 17:57 35.23503 -120.63504 214 ft 29 kts 124°
2026-04-29 17:57 35.23429 -120.63374 220 ft 27 kts 125°
2026-04-29 17:58 35.23308 -120.63246 222 ft 13 kts 210°
2026-04-29 17:58 35.23271 -120.63298 221 ft 4 kts 276°
2026-04-29 17:58 35.23357 -120.63450 217 ft 55 kts 307°
2026-04-29 17:58 35.23716 -120.64074 201 ft 120 kts 305°
2026-04-29 17:59 35.24276 -120.65040 367 ft 147 kts 307°
2026-04-29 17:59 35.24914 -120.66027 996 ft 146 kts 310°
2026-04-29 17:59 35.25593 -120.66970 1504 ft 156 kts 314°
2026-04-29 17:59 35.26384 -120.68018 1806 ft 174 kts 314°
2026-04-29 18:00 35.27236 -120.69132 2223 ft 185 kts 316°
2026-04-29 18:00 35.28151 -120.70319 2576 ft 199 kts 315°
2026-04-29 18:00 35.29134 -120.71607 2965 ft 218 kts 315°
2026-04-29 18:00 35.30231 -120.73032 3540 ft 239 kts 315°
2026-04-29 18:01 35.31263 -120.74705 4307 ft 254 kts 292°
2026-04-29 18:01 35.31523 -120.76858 5309 ft 259 kts 275°
2026-04-29 18:01 35.31420 -120.79095 6150 ft 267 kts 269°
2026-04-29 18:01 35.31676 -120.81381 6580 ft 288 kts 291°
2026-04-29 18:02 35.32688 -120.83543 7034 ft 297 kts 313°
2026-04-29 18:02 35.34151 -120.85213 8243 ft 274 kts 315°
2026-04-29 18:02 35.35157 -120.87157 9225 ft 275 kts 288°
2026-04-29 18:02 35.35203 -120.89493 9959 ft 282 kts 256°
2026-04-29 18:03 35.34214 -120.91652 10181 ft 307 kts 225°
2026-04-29 18:03 35.32341 -120.93034 10446 ft 327 kts 196°
2026-04-29 18:03 35.30033 -120.93182 10786 ft 343 kts 168°
2026-04-29 18:03 35.27845 -120.91987 11275 ft 350 kts 141°
2026-04-29 18:04 35.26292 -120.89699 11854 ft 353 kts 115°
2026-04-29 18:04 35.25707 -120.86786 12435 ft 355 kts 88°
2026-04-29 18:04 35.25888 -120.83763 13021 ft 359 kts 84°
2026-04-29 18:04 35.25931 -120.80729 13569 ft 365 kts 92°
2026-04-29 18:05 35.25622 -120.77626 14134 ft 370 kts 99°
2026-04-29 18:05 35.25200 -120.74508 14653 ft 374 kts 94°
2026-04-29 18:05 35.25123 -120.71315 15220 ft 376 kts 88°
2026-04-29 18:05 35.25213 -120.68094 15734 ft 380 kts 86°
2026-04-29 18:06 35.25321 -120.64844 16253 ft 384 kts 87°
2026-04-29 18:06 35.25382 -120.61563 16757 ft 388 kts 89°
2026-04-29 18:06 35.25397 -120.58247 17254 ft 392 kts 89°
2026-04-29 18:06 35.25414 -120.54902 17746 ft 395 kts 89°
2026-04-29 18:07 35.25432 -120.51526 18217 ft 399 kts 89°
2026-04-29 18:07 35.25450 -120.48120 18666 ft 402 kts 89°
2026-04-29 18:07 35.25470 -120.44681 19130 ft 403 kts 89°
2026-04-29 18:07 35.25486 -120.41236 19593 ft 405 kts 89°
2026-04-29 18:08 35.25504 -120.37778 19965 ft 409 kts 89°
2026-04-29 18:08 35.25522 -120.34331 20401 ft 411 kts 89°
2026-04-29 18:08 35.25534 -120.30827 20826 ft 413 kts 89°
2026-04-29 18:08 35.25551 -120.27303 21227 ft 415 kts 89°
2026-04-29 18:09 35.25565 -120.23771 21633 ft 417 kts 89°
2026-04-29 18:09 35.25578 -120.20213 22028 ft 418 kts 89°
2026-04-29 18:09 35.25587 -120.16642 22409 ft 420 kts 89°
2026-04-29 18:09 35.25600 -120.13065 22784 ft 422 kts 89°
2026-04-29 18:10 35.25609 -120.09455 23063 ft 426 kts 89°
2026-04-29 18:10 35.25617 -120.05821 23410 ft 428 kts 89°
2026-04-29 18:10 35.25625 -120.02174 23756 ft 429 kts 89°
2026-04-29 18:10 35.25632 -119.98507 24047 ft 431 kts 88°
2026-04-29 18:11 35.25635 -119.94835 24324 ft 432 kts 89°
2026-04-29 18:11 35.25641 -119.91197 24603 ft 434 kts 88°
2026-04-29 18:11 35.25645 -119.87501 24886 ft 435 kts 88°
2026-04-29 18:11 35.25644 -119.83789 25148 ft 436 kts 88°
2026-04-29 18:12 35.25647 -119.80066 25324 ft 440 kts 88°
2026-04-29 18:12 35.25652 -119.76309 25565 ft 442 kts 88°
2026-04-29 18:12 35.25644 -119.72548 25775 ft 445 kts 88°
2026-04-29 18:12 35.25645 -119.68715 25770 ft 453 kts 88°
2026-04-29 18:13 35.25635 -119.64834 25778 ft 460 kts 89°
2026-04-29 18:13 35.25526 -119.60889 25814 ft 466 kts 92°
2026-04-29 18:13 35.25305 -119.56937 26099 ft 465 kts 94°
2026-04-29 18:13 35.25066 -119.52993 26379 ft 466 kts 93°
2026-04-29 18:14 35.24832 -119.49033 26578 ft 467 kts 93°
2026-04-29 18:14 35.24631 -119.45075 26855 ft 466 kts 92°
2026-04-29 18:14 35.24434 -119.41113 27136 ft 465 kts 92°
2026-04-29 18:14 35.24237 -119.37163 27409 ft 465 kts 92°
2026-04-29 18:15 35.24043 -119.33270 27676 ft 464 kts 92°
2026-04-29 18:15 35.23736 -119.29349 27907 ft 465 kts 102°
2026-04-29 18:15 35.22735 -119.25595 28156 ft 464 kts 112°
2026-04-29 18:15 35.21423 -119.21976 28275 ft 467 kts 117°
2026-04-29 18:16 35.19801 -119.18541 28488 ft 467 kts 123°
2026-04-29 18:16 35.18032 -119.15208 28738 ft 466 kts 124°
2026-04-29 18:16 35.16268 -119.11887 29007 ft 465 kts 123°
2026-04-29 18:16 35.14569 -119.08538 29314 ft 463 kts 122°
2026-04-29 18:17 35.12908 -119.05172 29558 ft 462 kts 122°
2026-04-29 18:17 35.11240 -119.01820 29797 ft 462 kts 122°
2026-04-29 18:17 35.09571 -118.98470 30012 ft 461 kts 122°
2026-04-29 18:17 35.07903 -118.95125 30241 ft 461 kts 123°
2026-04-29 18:18 35.06224 -118.91762 30272 ft 464 kts 123°
2026-04-29 18:18 35.05111 -118.89539 30386 ft 464 kts 123°
2026-04-29 18:18 35.03426 -118.86169 30554 ft 464 kts 123°
2026-04-29 18:18 35.01744 -118.82802 30717 ft 464 kts 124°
2026-04-29 18:19 35.00073 -118.79432 30899 ft 463 kts 124°
2026-04-29 18:19 34.98411 -118.76061 31058 ft 464 kts 124°
2026-04-29 18:19 34.96741 -118.72688 31220 ft 464 kts 124°
2026-04-29 18:19 34.95070 -118.69317 31347 ft 465 kts 125°
2026-04-29 18:20 34.93371 -118.65959 31503 ft 465 kts 126°
2026-04-29 18:20 34.89972 -118.59204 31712 ft 468 kts 126°
2026-04-29 18:20 34.88288 -118.55864 31829 ft 469 kts 126°
2026-04-29 18:21 34.86556 -118.52434 31961 ft 470 kts 126°
2026-04-29 18:21 34.84842 -118.49042 32101 ft 470 kts 127°
2026-04-29 18:21 34.83148 -118.45691 32234 ft 470 kts 127°
2026-04-29 18:21 34.81428 -118.42299 32361 ft 471 kts 127°
2026-04-29 18:22 34.79708 -118.38904 32473 ft 472 kts 127°
2026-04-29 18:22 34.77983 -118.35505 32611 ft 473 kts 127°
2026-04-29 18:22 34.76254 -118.32101 32727 ft 473 kts 127°
2026-04-29 18:23 34.72791 -118.25291 32924 ft 474 kts 128°
2026-04-29 18:23 34.69295 -118.18453 33045 ft 478 kts 129°
2026-04-29 18:23 34.67542 -118.15017 33167 ft 479 kts 129°
2026-04-29 18:24 34.65783 -118.11571 33305 ft 479 kts 129°
2026-04-29 18:24 34.64027 -118.08131 33443 ft 480 kts 128°
2026-04-29 18:24 34.62453 -118.04516 33479 ft 490 kts 122°
2026-04-29 18:24 34.61149 -118.00650 33584 ft 497 kts 116°
2026-04-29 18:25 34.60060 -117.96657 33684 ft 500 kts 114°
2026-04-29 18:25 34.59016 -117.92697 33800 ft 500 kts 115°
2026-04-29 18:25 34.57892 -117.88703 33878 ft 499 kts 118°
2026-04-29 18:25 34.56698 -117.84755 34003 ft 498 kts 119°
2026-04-29 18:26 34.55486 -117.80812 34108 ft 499 kts 118°
2026-04-29 18:26 34.53121 -117.72895 34323 ft 499 kts 118°
2026-04-29 18:26 34.51936 -117.68942 34462 ft 499 kts 118°
2026-04-29 18:27 34.50748 -117.64990 34577 ft 498 kts 118°
2026-04-29 18:27 34.49560 -117.61042 34698 ft 499 kts 118°
2026-04-29 18:27 34.48371 -117.57097 34824 ft 498 kts 118°
2026-04-29 18:28 34.45990 -117.49205 34995 ft 499 kts 118°
2026-04-29 18:28 34.43593 -117.41300 35026 ft 501 kts 119°
2026-04-29 18:29 34.41180 -117.33344 35059 ft 505 kts 119°
2026-04-29 18:29 34.38742 -117.25321 35073 ft 509 kts 119°
2026-04-29 18:30 34.36291 -117.17295 35077 ft 514 kts 119°
2026-04-29 18:30 34.33791 -117.09147 35071 ft 519 kts 119°
2026-04-29 18:31 34.31277 -117.00920 35052 ft 523 kts 119°
2026-04-29 18:31 34.28729 -116.92642 35063 ft 527 kts 119°
2026-04-29 18:32 34.26161 -116.84315 35057 ft 530 kts 119°
2026-04-29 18:32 34.22304 -116.71850 35037 ft 526 kts 119°
2026-04-29 18:33 34.19726 -116.63590 35014 ft 524 kts 119°
2026-04-29 18:33 34.17190 -116.55426 35019 ft 521 kts 119°
2026-04-29 18:34 34.15049 -116.48571 35020 ft 519 kts 120°
2026-04-29 18:34 34.12077 -116.39088 35026 ft 521 kts 120°
2026-04-29 18:35 34.09500 -116.30879 35025 ft 523 kts 120°
2026-04-29 18:35 34.06907 -116.22657 35083 ft 526 kts 119°
2026-04-29 18:36 34.04302 -116.14399 35068 ft 528 kts 119°
2026-04-29 18:36 34.01678 -116.06110 35055 ft 530 kts 120°
2026-04-29 18:37 33.99040 -115.97803 35031 ft 532 kts 119°
2026-04-29 18:37 33.96398 -115.89526 35016 ft 534 kts 119°
2026-04-29 18:38 33.93717 -115.81108 35024 ft 536 kts 119°
2026-04-29 18:38 33.91040 -115.72765 34989 ft 537 kts 119°
2026-04-29 18:39 33.88355 -115.64374 34998 ft 537 kts 120°
2026-04-29 18:39 33.85643 -115.55958 35004 ft 539 kts 120°
2026-04-29 18:40 33.82948 -115.47599 34995 ft 540 kts 120°
2026-04-29 18:40 33.80201 -115.39133 34999 ft 540 kts 120°
2026-04-29 18:41 33.74747 -115.22341 34994 ft 541 kts 120°
2026-04-29 18:42 33.71999 -115.13915 35004 ft 542 kts 120°
2026-04-29 18:42 33.69240 -115.05486 35012 ft 543 kts 120°
2026-04-29 18:43 33.66469 -114.97041 35016 ft 544 kts 120°
2026-04-29 18:43 33.63691 -114.88599 35026 ft 544 kts 120°
2026-04-29 18:44 33.60904 -114.80146 35022 ft 544 kts 120°
2026-04-29 18:44 33.58922 -114.71271 35024 ft 559 kts 104°
2026-04-29 18:45 33.58252 -114.61922 35030 ft 564 kts 99°
2026-04-29 18:45 33.57514 -114.52576 35019 ft 561 kts 102°
2026-04-29 18:46 33.56591 -114.43269 35013 ft 562 kts 102°
2026-04-29 18:46 33.55732 -114.34012 35006 ft 563 kts 102°
2026-04-29 18:47 33.54873 -114.24672 34990 ft 563 kts 102°
2026-04-29 18:47 33.54006 -114.15331 34998 ft 564 kts 102°
2026-04-29 18:48 33.53134 -114.05986 35003 ft 564 kts 102°
2026-04-29 18:48 33.52244 -113.96639 35003 ft 565 kts 102°
2026-04-29 18:49 33.51341 -113.87291 35012 ft 565 kts 102°
2026-04-29 18:49 33.50514 -113.77907 35025 ft 566 kts 101°
2026-04-29 18:50 33.49647 -113.68541 35035 ft 566 kts 102°
2026-04-29 18:50 33.48739 -113.59171 35038 ft 566 kts 102°
2026-04-29 18:51 33.47817 -113.49808 35036 ft 566 kts 102°
2026-04-29 18:51 33.46891 -113.40437 34996 ft 566 kts 102°
2026-04-29 18:52 33.46164 -113.35903 34960 ft 557 kts 114°
2026-04-29 18:52 33.44923 -113.31548 34982 ft 550 kts 118°
2026-04-29 18:52 33.41813 -113.23268 34987 ft 542 kts 126°
2026-04-29 18:53 33.38453 -113.15183 34985 ft 544 kts 124°
2026-04-29 18:53 33.35210 -113.06992 34986 ft 545 kts 124°
2026-04-29 18:54 33.31961 -112.98802 34998 ft 545 kts 124°
2026-04-29 18:54 33.28714 -112.90612 34988 ft 545 kts 124°
2026-04-29 18:55 33.25454 -112.82443 35007 ft 545 kts 124°
2026-04-29 18:55 33.22193 -112.74275 35014 ft 545 kts 124°
2026-04-29 18:56 33.18918 -112.66097 35018 ft 546 kts 124°
2026-04-29 18:56 33.15639 -112.57924 35017 ft 547 kts 123°
2026-04-29 18:57 33.12356 -112.49738 34978 ft 547 kts 124°
2026-04-29 18:57 33.09056 -112.41569 34988 ft 547 kts 124°
2026-04-29 18:58 33.05758 -112.33397 34992 ft 547 kts 124°
2026-04-29 18:58 33.02468 -112.25286 34989 ft 547 kts 124°
2026-04-29 18:59 32.99154 -112.17118 34996 ft 547 kts 124°
2026-04-29 18:59 32.95828 -112.08957 34970 ft 547 kts 124°
2026-04-29 19:00 32.92509 -112.00810 34993 ft 547 kts 124°
2026-04-29 19:00 32.89181 -111.92668 35000 ft 549 kts 122°
2026-04-29 19:01 32.86746 -111.83949 35006 ft 562 kts 108°
2026-04-29 19:01 32.85044 -111.74853 35051 ft 562 kts 110°
2026-04-29 19:02 32.83344 -111.67418 35041 ft 560 kts 112°
2026-04-29 19:02 32.80933 -111.56963 34989 ft 562 kts 111°
2026-04-29 19:03 32.78919 -111.47998 35021 ft 561 kts 111°
2026-04-29 19:03 32.76917 -111.39090 35044 ft 562 kts 111°
2026-04-29 19:04 32.74885 -111.30124 35052 ft 562 kts 111°
2026-04-29 19:04 32.72853 -111.21151 35060 ft 563 kts 111°
2026-04-29 19:05 32.70806 -111.12185 35061 ft 563 kts 111°
2026-04-29 19:05 32.68755 -111.03192 35064 ft 564 kts 111°
2026-04-29 19:06 32.67040 -110.95728 35054 ft 564 kts 111°
2026-04-29 19:07 32.63939 -110.82252 35050 ft 565 kts 111°
2026-04-29 19:07 32.61858 -110.73250 35034 ft 565 kts 111°
2026-04-29 19:08 32.59758 -110.64269 35021 ft 565 kts 111°
2026-04-29 19:08 32.57654 -110.55297 35029 ft 565 kts 111°
2026-04-29 19:09 32.55638 -110.46289 35038 ft 565 kts 110°
2026-04-29 19:09 32.53553 -110.37303 35045 ft 566 kts 111°
2026-04-29 19:10 32.51438 -110.28311 35025 ft 566 kts 111°
2026-04-29 19:10 32.49296 -110.19340 34996 ft 566 kts 111°
2026-04-29 19:11 32.47144 -110.10366 35009 ft 566 kts 111°
2026-04-29 19:11 32.45013 -110.01394 34981 ft 566 kts 111°
2026-04-29 19:12 32.42889 -109.92480 34961 ft 566 kts 111°
2026-04-29 19:12 32.40739 -109.83516 34968 ft 566 kts 111°
2026-04-29 19:13 32.38584 -109.74549 34952 ft 567 kts 111°
2026-04-29 19:13 32.36424 -109.65578 34925 ft 566 kts 111°
2026-04-29 19:14 32.34256 -109.56627 34939 ft 566 kts 111°
2026-04-29 19:14 32.32083 -109.47679 34938 ft 566 kts 111°
2026-04-29 19:15 32.29902 -109.38732 34935 ft 566 kts 111°
2026-04-29 19:15 32.27717 -109.29793 34939 ft 567 kts 111°
2026-04-29 19:16 32.26080 -109.20637 34943 ft 574 kts 99°
2026-04-29 19:16 32.25507 -109.11211 34947 ft 575 kts 98°
2026-04-29 19:17 32.24583 -109.01819 34948 ft 574 kts 101°
2026-04-29 19:17 32.23610 -108.92444 34948 ft 575 kts 99°
2026-04-29 19:18 32.22709 -108.83124 34933 ft 575 kts 99°
2026-04-29 19:18 32.21793 -108.73745 35129 ft 575 kts 100°
2026-04-29 19:19 32.20867 -108.64352 35111 ft 576 kts 100°
2026-04-29 19:19 32.19928 -108.54952 35075 ft 576 kts 100°
2026-04-29 19:20 32.18984 -108.45552 35034 ft 576 kts 100°
2026-04-29 19:20 32.18037 -108.36142 34980 ft 577 kts 100°
2026-04-29 19:21 32.17082 -108.26744 34950 ft 577 kts 100°
2026-04-29 19:21 32.16121 -108.17404 34948 ft 577 kts 100°
2026-04-29 19:22 32.15150 -108.08001 34948 ft 577 kts 100°
2026-04-29 19:22 32.14176 -107.98596 34941 ft 577 kts 100°
2026-04-29 19:23 32.13189 -107.89196 34940 ft 577 kts 100°
2026-04-29 19:23 32.12199 -107.79805 35079 ft 577 kts 101°
2026-04-29 19:24 32.11201 -107.70404 35079 ft 577 kts 100°
2026-04-29 19:24 32.10195 -107.61016 35079 ft 577 kts 100°
2026-04-29 19:25 32.09181 -107.51610 35017 ft 578 kts 101°
2026-04-29 19:25 32.08158 -107.42203 34962 ft 577 kts 101°
2026-04-29 19:26 32.07137 -107.32808 34925 ft 577 kts 100°
2026-04-29 19:26 32.06100 -107.23424 34929 ft 577 kts 101°
2026-04-29 19:27 32.05061 -107.14037 34959 ft 577 kts 101°
2026-04-29 19:27 32.04019 -107.04713 35003 ft 577 kts 101°
2026-04-29 19:28 32.02962 -106.95322 34999 ft 578 kts 101°
2026-04-29 19:28 32.01902 -106.85933 35033 ft 578 kts 101°
2026-04-29 19:29 32.00846 -106.76547 35055 ft 577 kts 100°
2026-04-29 19:29 31.99763 -106.67167 35079 ft 577 kts 100°
2026-04-29 19:30 31.98681 -106.57798 35060 ft 578 kts 100°
2026-04-29 19:30 31.97593 -106.48422 35038 ft 578 kts 100°
2026-04-29 19:31 31.96495 -106.39050 35055 ft 578 kts 101°
2026-04-29 19:31 31.95383 -106.29673 35052 ft 578 kts 100°
2026-04-29 19:32 31.94873 -106.20219 35018 ft 581 kts 89°
2026-04-29 19:32 31.94994 -106.10707 34974 ft 581 kts 92°
2026-04-29 19:33 31.94764 -106.01265 34937 ft 581 kts 93°
2026-04-29 19:33 31.94545 -105.91688 34921 ft 582 kts 92°
2026-04-29 19:34 31.94373 -105.82215 34906 ft 582 kts 92°
2026-04-29 19:34 31.94193 -105.72671 34872 ft 582 kts 92°
2026-04-29 19:35 31.94009 -105.63142 34879 ft 582 kts 92°
2026-04-29 19:35 31.93819 -105.53602 34867 ft 583 kts 92°
2026-04-29 19:36 31.93615 -105.44130 34828 ft 583 kts 92°
2026-04-29 19:36 31.93406 -105.34594 34834 ft 582 kts 92°
2026-04-29 19:37 31.93215 -105.25065 34840 ft 582 kts 91°
2026-04-29 19:37 31.93010 -105.15533 34851 ft 582 kts 92°
2026-04-29 19:38 31.92798 -105.06000 34864 ft 583 kts 92°
2026-04-29 19:38 31.92583 -104.96458 34867 ft 583 kts 92°
2026-04-29 19:39 31.92363 -104.86921 34902 ft 583 kts 92°
2026-04-29 19:39 31.92128 -104.77372 34854 ft 583 kts 92°
2026-04-29 19:40 31.91891 -104.67836 34862 ft 582 kts 92°
2026-04-29 19:40 31.91643 -104.58315 34886 ft 582 kts 92°
2026-04-29 19:41 31.91389 -104.48779 34893 ft 582 kts 92°
2026-04-29 19:41 31.91132 -104.39315 34892 ft 582 kts 92°
2026-04-29 19:42 31.90866 -104.29788 34889 ft 583 kts 92°
2026-04-29 19:42 31.90587 -104.20259 34894 ft 583 kts 92°
2026-04-29 19:43 31.90316 -104.10716 34892 ft 582 kts 92°
2026-04-29 19:43 31.90025 -104.01193 34890 ft 582 kts 92°
2026-04-29 19:44 31.89728 -103.91678 34877 ft 582 kts 92°
2026-04-29 19:44 31.89425 -103.82154 34886 ft 582 kts 92°
2026-04-29 19:45 31.89114 -103.72635 34900 ft 582 kts 92°
2026-04-29 19:45 31.88798 -103.63104 34906 ft 583 kts 92°
2026-04-29 19:46 31.88473 -103.53581 34871 ft 582 kts 92°
2026-04-29 19:46 31.88142 -103.44065 34899 ft 582 kts 92°
2026-04-29 19:47 31.87804 -103.34557 34908 ft 582 kts 92°
2026-04-29 19:47 31.87495 -103.25048 34902 ft 581 kts 88°
2026-04-29 19:48 31.88518 -103.15670 34922 ft 577 kts 75°
2026-04-29 19:48 31.90002 -103.06389 34921 ft 578 kts 78°
2026-04-29 19:49 31.91154 -102.97029 34931 ft 578 kts 79°
2026-04-29 19:49 31.92329 -102.87722 34936 ft 578 kts 78°
2026-04-29 19:50 31.93550 -102.78373 34956 ft 578 kts 78°
2026-04-29 19:50 31.94766 -102.69020 34990 ft 577 kts 79°
2026-04-29 19:51 31.95973 -102.59688 35029 ft 576 kts 78°
2026-04-29 19:51 31.96972 -102.51927 35056 ft 576 kts 79°
2026-04-29 19:52 31.98165 -102.42601 35071 ft 576 kts 79°
2026-04-29 19:52 31.99350 -102.33268 35074 ft 575 kts 79°
2026-04-29 19:53 32.00529 -102.23941 35063 ft 575 kts 79°
2026-04-29 19:53 32.01702 -102.14621 35072 ft 575 kts 79°
2026-04-29 19:54 32.03443 -102.00643 35085 ft 575 kts 79°
2026-04-29 19:54 32.04594 -101.91321 35046 ft 575 kts 79°
2026-04-29 19:55 32.05743 -101.82000 35015 ft 575 kts 79°
2026-04-29 19:55 32.06883 -101.72672 35021 ft 575 kts 79°
2026-04-29 19:56 32.08012 -101.63346 35040 ft 575 kts 79°
2026-04-29 19:56 32.09140 -101.54024 35075 ft 575 kts 79°
2026-04-29 19:57 32.10257 -101.44688 35059 ft 575 kts 79°
2026-04-29 19:57 32.11362 -101.35402 35045 ft 575 kts 79°
2026-04-29 19:58 32.12470 -101.26054 35032 ft 575 kts 79°
2026-04-29 19:58 32.13569 -101.16705 34989 ft 575 kts 79°
2026-04-29 19:59 32.14664 -101.07347 34985 ft 575 kts 79°
2026-04-29 19:59 32.15749 -100.97990 34987 ft 575 kts 79°
2026-04-29 20:00 32.16826 -100.88638 34986 ft 575 kts 79°
2026-04-29 20:00 32.17901 -100.79287 34994 ft 575 kts 79°